Regional Weather Roundup
Issued by NWS

Home | Current Version | Previous Version | Text Only | Print | Product List | Glossary On
Versions: 1 2 3 4 5 6 7 8 9 10 11 12 13 14 15 16 17 18 19 20 21 22 23 24 25 26 27 28 29 30 31 32 33 34 35 36 37 38 39 40 41 42 43 44 45 46 47 48 49 50
000
ASUS44 KMEG 231110
RWRTN
TENNESSEE HOURLY STATE WEATHER ROUNDUP
NATIONAL WEATHER SERVICE MEMPHIS TN
600 AM CDT SUN JUL 23 2017

TNZ002-004-019-021-049-052-054-088>092-231200-
WEST TENNESSEE

CITY           SKY/WX    TMP DP  RH WIND       PRES   REMARKS
MEMPHIS INTL   PTCLDY    76  74  93 SW7       29.91S
NWS MEMPHIS      N/A     77 N/A N/A MISG        N/A
JACKSON        CLEAR     76  74  93 SW6       29.90R
SOMERVILLE       N/A     75  73  94 S8        29.90S
COVINGTON      CLEAR     77  73  88 SW5       29.89R
UNION CITY     CLEAR     77  75  94 W5        29.88R
BOLIVAR        CLEAR     75  72  88 S3        29.91R
PARIS          CLEAR     75  73  94 SW7       29.88R
HUNTINGDON     CLEAR     77  73  88 SW5       29.88R
LEXINGTON      CLEAR     73  72  94 CALM      29.90S
SELMER         CLEAR     73  72  94 W6        29.92R
SAVANNAH       PTCLDY    75  72  88 SE5       29.91S
$$

TNZ008-025-027-028-033-062-065-066-231200-
NORTH MIDDLE TENNESSEE

CITY           SKY/WX    TMP DP  RH WIND       PRES   REMARKS
NASHVILLE      PTCLDY    79  70  74 SW6       29.89F
PORTLAND         N/A     75  73  94 NE3       29.91R
CLARKSVILLE    CLEAR     77  73  87 SW8       29.87R
SMYRNA         PTCLDY    76  72  87 SE3       29.91S
COOKEVILLE     CLEAR     73  73 100 S3        29.93S
GALLATIN       CLEAR     75  72  88 CALM      29.92R
CROSSVILLE     CLEAR     71  70  96 SW5       29.99R
$$

TNZ061-075-076-078-094-096-097-231200-
SOUTH MIDDLE TENNESSEE

CITY           SKY/WX    TMP DP  RH WIND       PRES   REMARKS
FAYETTEVILLE   CLEAR     75  75 100 CALM      29.95R FOG
TULLAHOMA      CLEAR     72  70  94 CALM      29.96S
WINCHESTER     CLEAR     72  72 100 CALM      29.96R
MCMINNVILLE    CLEAR     75  75 100 CALM      29.94S
COLUMBIA       CLEAR     75  73  94 S5        29.90S
SHELBYVILLE    CLEAR     72  72 100 S7        29.93S
$$

TNZ017-018-042-046-047-231200-
NORTHEAST TENNESSEE

CITY           SKY/WX    TMP DP  RH WIND       PRES   REMARKS
TRI CITIES     CLOUDY    74  72  93 CALM      29.97R THUNDER
ELIZABETHTON   CLOUDY    73  72  94 CALM      29.97R FOG
$$

TNZ012-013-036-069-073-074-231200-
CENTRAL EAST TENNESSEE

CITY           SKY/WX    TMP DP  RH WIND       PRES   REMARKS
KNOXVILLE      PTCLDY    77  73  87 W5        29.95R
OAK RIDGE      CLEAR     78  74  87 CALM      29.95R
DOWNTOWN KNOXV CLEAR     79  75  89 W3        29.93R
GATLINBURG     MOCLDY    79  70  73 SW6       29.95R
MORRISTOWN     CLEAR     77  73  88 SW7       29.95S
JACKSBORO        N/A     73  73 100 CALM      29.98R FOG
$$

TNZ083-085-099-231200-
SOUTHEAST TENNESSEE

CITY           SKY/WX    TMP DP  RH WIND       PRES   REMARKS
CHATTANOOGA    PTCLDY    77  74  90 S3        29.95R FOG
DAYTON         PTSUNNY   77  75  94 CALM      29.93R
$$

SKY/WX REPORTED AS FAIR MEANS FEW OR NO CLOUDS BELOW
12 THOUSAND FEET.





USA.gov is the U.S. government's official web portal to all federal, state and local government web resources and services.